Time,TemperatureF,DewpointF,PressureIn,WindDirection,WindDirectionDegrees,WindSpeedMPH,WindSpeedGustMPH,Humidity,HourlyPrecipIn,Conditions,Clouds,dailyrainin,SoftwareType,DateUTC
2013-03-25 00:00:00,36.1,32.0,29.57,WNW,300,1.0,1.0,85,0.00,,,1.21,Wunderground v.1.15,2013-03-25 04:00:00,
2013-03-25 00:05:00,35.9,31.5,29.57,NW,310,1.0,2.0,84,0.00,,,0.00,Wunderground v.1.15,2013-03-25 04:05:00,
2013-03-25 00:10:00,35.9,31.8,29.57,NW,309,1.0,1.0,85,0.00,,,0.00,Wunderground v.1.15,2013-03-25 04:10:00,
2013-03-25 00:15:00,35.7,31.6,29.57,NW,309,1.0,1.0,85,0.00,,,0.00,Wunderground v.1.15,2013-03-25 04:15:00,
2013-03-25 00:20:00,35.6,31.8,29.57,NW,309,0.0,1.0,86,0.00,,,0.00,Wunderground v.1.15,2013-03-25 04:20:00,
2013-03-25 00:25:00,35.5,31.4,29.58,NW,309,0.0,1.0,85,0.00,,,0.00,Wunderground v.1.15,2013-03-25 04:25:00,
2013-03-25 00:30:00,35.4,31.6,29.58,NW,309,0.0,2.0,86,0.00,,,0.00,Wunderground v.1.15,2013-03-25 04:30:00,
2013-03-25 00:35:00,35.4,31.9,29.58,NW,309,0.0,2.0,87,0.00,,,0.00,Wunderground v.1.15,2013-03-25 04:35:00,
2013-03-25 00:40:00,35.3,31.8,29.58,West,271,1.0,1.0,87,0.00,,,0.00,Wunderground v.1.15,2013-03-25 04:40:00,
2013-03-25 00:45:00,35.3,32.1,29.58,West,268,0.0,4.0,88,0.00,,,0.00,Wunderground v.1.15,2013-03-25 04:45:00,
2013-03-25 00:50:00,35.3,31.8,29.58,West,281,0.0,4.0,87,0.00,,,0.00,Wunderground v.1.15,2013-03-25 04:50:00,
2013-03-25 00:55:00,35.2,31.7,29.58,West,280,1.0,4.0,87,0.00,,,0.00,Wunderground v.1.15,2013-03-25 04:55:00,
2013-03-25 01:00:00,35.2,31.4,29.58,WSW,252,0.0,0.0,86,0.00,,,0.00,Wunderground v.1.15,2013-03-25 05:00:00,
2013-03-25 01:06:00,35.2,31.7,29.58,WSW,254,0.0,0.0,87,0.00,,,0.00,Wunderground v.1.15,2013-03-25 05:06:00,
2013-03-25 01:10:00,35.1,31.6,29.58,WSW,254,0.0,0.0,87,0.00,,,0.00,Wunderground v.1.15,2013-03-25 05:10:00,
2013-03-25 01:15:00,35.0,31.5,29.58,WSW,254,0.0,0.0,87,0.00,,,0.00,Wunderground v.1.15,2013-03-25 05:15:00,
2013-03-25 01:20:00,35.0,31.5,29.58,WSW,254,0.0,0.0,87,0.00,,,0.00,Wunderground v.1.15,2013-03-25 05:20:00,
2013-03-25 01:25:00,35.0,31.5,29.58,WSW,254,0.0,0.0,87,0.00,,,0.00,Wunderground v.1.15,2013-03-25 05:25:00,
2013-03-25 01:30:00,34.9,31.4,29.58,WSW,254,0.0,0.0,87,0.00,,,0.00,Wunderground v.1.15,2013-03-25 05:30:00,
2013-03-25 01:35:00,34.8,31.3,29.58,WSW,254,0.0,0.0,87,0.00,,,0.00,Wunderground v.1.15,2013-03-25 05:35:00,
2013-03-25 01:40:00,34.8,31.3,29.58,WSW,254,0.0,3.0,87,0.00,,,0.00,Wunderground v.1.15,2013-03-25 05:40:00,
2013-03-25 01:45:00,34.7,30.9,29.58,West,259,0.0,3.0,86,0.00,,,0.00,Wunderground v.1.15,2013-03-25 05:45:00,
2013-03-25 01:50:00,34.7,30.9,29.58,WNW,286,1.0,2.0,86,0.00,,,0.00,Wunderground v.1.15,2013-03-25 05:50:00,
2013-03-25 01:55:00,34.7,30.9,29.58,West,266,1.0,2.0,86,0.00,,,0.00,Wunderground v.1.15,2013-03-25 05:55:00,
2013-03-25 02:00:00,34.7,30.9,29.58,SW,217,1.0,1.0,86,0.00,,,0.00,Wunderground v.1.15,2013-03-25 06:00:00,
2013-03-25 02:06:00,34.6,30.8,29.58,WSW,256,0.0,1.0,86,0.00,,,0.00,Wunderground v.1.15,2013-03-25 06:06:00,
2013-03-25 02:15:00,34.4,30.6,29.58,WNW,303,0.0,0.0,86,0.00,,,0.00,Wunderground v.1.15,2013-03-25 06:15:00,
2013-03-25 02:20:00,34.4,30.1,29.59,WNW,294,1.0,3.0,84,0.00,,,0.00,Wunderground v.1.15,2013-03-25 06:20:00,
2013-03-25 02:25:00,34.4,30.1,29.59,WNW,303,2.0,3.0,84,0.00,,,0.00,Wunderground v.1.15,2013-03-25 06:25:00,
2013-03-25 02:30:00,34.1,29.5,29.59,West,277,2.0,2.0,83,0.00,,,0.00,Wunderground v.1.15,2013-03-25 06:30:00,
2013-03-25 02:35:00,34.0,29.7,29.59,West,279,1.0,2.0,84,0.00,,,0.00,Wunderground v.1.15,2013-03-25 06:35:00,
2013-03-25 02:40:00,33.9,29.3,29.59,West,279,1.0,1.0,83,0.00,,,0.00,Wunderground v.1.15,2013-03-25 06:40:00,
2013-03-25 02:45:00,33.8,29.2,29.59,WNW,288,1.0,1.0,83,0.00,,,0.00,Wunderground v.1.15,2013-03-25 06:45:00,
2013-03-25 02:50:00,33.7,29.4,29.59,WNW,289,1.0,1.0,84,0.00,,,0.00,Wunderground v.1.15,2013-03-25 06:50:00,
2013-03-25 02:55:00,33.5,29.2,29.59,WNW,289,1.0,1.0,84,0.00,,,0.00,Wunderground v.1.15,2013-03-25 06:55:00,
2013-03-25 03:00:00,33.5,29.2,29.59,WNW,289,1.0,1.0,84,0.00,,,0.00,Wunderground v.1.15,2013-03-25 07:00:00,
2013-03-25 03:06:00,33.3,28.7,29.59,WNW,287,1.0,1.0,83,0.00,,,0.00,Wunderground v.1.15,2013-03-25 07:06:00,
2013-03-25 03:10:00,33.2,28.3,29.59,NW,318,2.0,2.0,82,0.00,,,0.00,Wunderground v.1.15,2013-03-25 07:10:00,
2013-03-25 03:15:00,33.1,28.5,29.60,NW,319,2.0,2.0,83,0.00,,,0.00,Wunderground v.1.15,2013-03-25 07:15:00,
2013-03-25 03:20:00,32.9,28.3,29.60,WNW,293,1.0,1.0,83,0.00,,,0.00,Wunderground v.1.15,2013-03-25 07:20:00,
2013-03-25 03:25:00,32.8,27.6,29.60,NW,310,2.0,2.0,81,0.00,,,0.00,Wunderground v.1.15,2013-03-25 07:25:00,
2013-03-25 03:30:00,32.5,27.0,29.60,WNW,294,2.0,3.0,80,0.00,,,0.00,Wunderground v.1.15,2013-03-25 07:30:00,
2013-03-25 03:35:00,32.3,26.2,29.60,NNW,327,2.0,3.0,78,0.00,,,0.00,Wunderground v.1.15,2013-03-25 07:35:00,
2013-03-25 03:40:00,32.1,26.0,29.59,NW,310,2.0,3.0,78,0.00,,,0.00,Wunderground v.1.15,2013-03-25 07:40:00,
2013-03-25 03:45:00,31.9,26.1,29.60,West,277,1.0,3.0,79,0.00,,,0.00,Wunderground v.1.15,2013-03-25 07:45:00,
2013-03-25 03:50:00,31.8,25.7,29.60,ENE,69,1.0,1.0,78,0.00,,,0.00,Wunderground v.1.15,2013-03-25 07:50:00,
2013-03-25 03:55:00,31.6,25.2,29.60,WNW,302,2.0,2.0,77,0.00,,,0.00,Wunderground v.1.15,2013-03-25 07:55:00,
2013-03-25 04:00:00,31.5,25.4,29.60,WNW,292,2.0,3.0,78,0.00,,,0.00,Wunderground v.1.15,2013-03-25 08:00:00,
2013-03-25 04:05:00,31.4,25.6,29.60,NW,317,1.0,3.0,79,0.00,,,0.00,Wunderground v.1.15,2013-03-25 08:05:00,
2013-03-25 04:10:00,31.2,24.8,29.60,NW,317,1.0,2.0,77,0.00,,,0.00,Wunderground v.1.15,2013-03-25 08:10:00,
2013-03-25 04:15:00,31.0,24.3,29.61,NW,313,2.0,3.0,76,0.00,,,0.00,Wunderground v.1.15,2013-03-25 08:15:00,
2013-03-25 04:20:00,31.0,24.6,29.60,WSW,240,2.0,2.0,77,0.00,,,0.00,Wunderground v.1.15,2013-03-25 08:20:00,
2013-03-25 04:25:00,30.9,24.5,29.60,WNW,286,2.0,3.0,77,0.00,,,0.00,Wunderground v.1.15,2013-03-25 08:25:00,
2013-03-25 04:30:00,30.9,24.8,29.60,WNW,283,1.0,1.0,78,0.00,,,0.00,Wunderground v.1.15,2013-03-25 08:30:00,
2013-03-25 04:35:00,30.8,24.4,29.60,West,267,1.0,1.0,77,0.00,,,0.00,Wunderground v.1.15,2013-03-25 08:35:00,
2013-03-25 04:40:00,30.8,24.7,29.61,West,268,1.0,2.0,78,0.00,,,0.00,Wunderground v.1.15,2013-03-25 08:40:00,
2013-03-25 04:45:00,30.8,25.1,29.61,West,268,1.0,2.0,79,0.00,,,0.00,Wunderground v.1.15,2013-03-25 08:45:00,
2013-03-25 04:50:00,30.7,25.0,29.61,WNW,288,1.0,1.0,79,0.00,,,0.00,Wunderground v.1.15,2013-03-25 08:50:00,
2013-03-25 04:55:00,30.7,24.7,29.61,NW,318,1.0,5.0,78,0.00,,,0.00,Wunderground v.1.15,2013-03-25 08:55:00,
2013-03-25 05:00:00,30.6,24.6,29.61,NW,308,1.0,1.0,78,0.00,,,0.00,Wunderground v.1.15,2013-03-25 09:00:00,
2013-03-25 05:05:00,30.6,24.2,29.62,NW,308,1.0,1.0,77,0.00,,,0.00,Wunderground v.1.15,2013-03-25 09:05:00,
2013-03-25 05:15:00,30.4,23.7,29.62,NW,321,1.0,1.0,76,0.00,,,0.00,Wunderground v.1.15,2013-03-25 09:15:00,
2013-03-25 05:20:00,30.3,24.0,29.62,NW,319,2.0,2.0,77,0.00,,,0.00,Wunderground v.1.15,2013-03-25 09:20:00,
2013-03-25 05:30:00,30.1,23.4,29.63,NW,314,3.0,3.0,76,0.00,,,0.00,Wunderground v.1.15,2013-03-25 09:30:00,
2013-03-25 05:35:00,30.1,23.8,29.63,NW,313,2.0,3.0,77,0.00,,,0.00,Wunderground v.1.15,2013-03-25 09:35:00,
2013-03-25 05:40:00,29.9,23.6,29.63,NW,313,2.0,2.0,77,0.00,,,0.00,Wunderground v.1.15,2013-03-25 09:40:00,
2013-03-25 05:45:00,29.9,23.6,29.63,West,281,1.0,2.0,77,0.00,,,0.00,Wunderground v.1.15,2013-03-25 09:45:00,
2013-03-25 05:50:00,29.8,23.8,29.63,WNW,283,1.0,1.0,78,0.00,,,0.00,Wunderground v.1.15,2013-03-25 09:50:00,
2013-03-25 05:55:00,29.7,23.4,29.63,NW,325,1.0,2.0,77,0.00,,,0.00,Wunderground v.1.15,2013-03-25 09:55:00,
2013-03-25 06:05:00,29.6,23.6,29.64,NW,323,1.0,2.0,78,0.00,,,0.00,Wunderground v.1.15,2013-03-25 10:05:00,
2013-03-25 06:10:00,29.5,23.2,29.64,NW,322,1.0,1.0,77,0.00,,,0.00,Wunderground v.1.15,2013-03-25 10:10:00,
2013-03-25 06:20:00,29.5,22.9,29.64,WNW,292,2.0,2.0,76,0.00,,,0.00,Wunderground v.1.15,2013-03-25 10:20:00,
2013-03-25 06:25:00,29.5,22.6,29.64,WNW,288,2.0,2.0,75,0.00,,,0.00,Wunderground v.1.15,2013-03-25 10:25:00,
2013-03-25 06:30:00,29.4,22.8,29.65,NW,315,2.0,4.0,76,0.00,,,0.00,Wunderground v.1.15,2013-03-25 10:30:00,
2013-03-25 06:35:00,29.3,22.4,29.65,NW,309,2.0,4.0,75,0.00,,,0.00,Wunderground v.1.15,2013-03-25 10:35:00,
2013-03-25 06:40:00,29.2,22.3,29.66,NW,310,2.0,3.0,75,0.00,,,0.00,Wunderground v.1.15,2013-03-25 10:40:00,
2013-03-25 06:45:00,29.2,22.9,29.66,NW,306,1.0,3.0,77,0.00,,,0.00,Wunderground v.1.15,2013-03-25 10:45:00,
2013-03-25 06:55:00,29.0,22.7,29.66,NW,314,1.0,2.0,77,0.00,,,0.00,Wunderground v.1.15,2013-03-25 10:55:00,
2013-03-25 07:00:00,28.9,22.9,29.66,West,261,1.0,1.0,78,0.00,,,0.00,Wunderground v.1.15,2013-03-25 11:00:00,
2013-03-25 07:05:00,28.8,23.4,29.66,WNW,283,1.0,1.0,80,0.00,,,0.00,Wunderground v.1.15,2013-03-25 11:05:00,
2013-03-25 07:10:00,28.8,23.7,29.67,WNW,283,1.0,2.0,81,0.00,,,0.00,Wunderground v.1.15,2013-03-25 11:10:00,
2013-03-25 07:15:00,28.6,23.8,29.67,NW,304,1.0,5.0,82,0.00,,,0.00,Wunderground v.1.15,2013-03-25 11:15:00,
2013-03-25 07:20:00,28.5,24.0,29.67,WNW,303,1.0,1.0,83,0.00,,,0.00,Wunderground v.1.15,2013-03-25 11:20:00,
2013-03-25 07:25:00,28.3,24.1,29.67,NW,304,1.0,2.0,84,0.00,,,0.00,Wunderground v.1.15,2013-03-25 11:25:00,
2013-03-25 07:30:00,28.3,24.4,29.67,WNW,296,1.0,1.0,85,0.00,,,0.00,Wunderground v.1.15,2013-03-25 11:30:00,
2013-03-25 07:40:00,28.0,24.4,29.68,WNW,297,0.0,0.0,86,0.00,,,0.00,Wunderground v.1.15,2013-03-25 11:40:00,
2013-03-25 07:45:00,27.9,24.5,29.68,WNW,297,0.0,0.0,87,0.00,,,0.00,Wunderground v.1.15,2013-03-25 11:45:00,
2013-03-25 07:50:00,27.9,24.5,29.68,WNW,298,0.0,0.0,87,0.00,,,0.00,Wunderground v.1.15,2013-03-25 11:50:00,
2013-03-25 07:55:00,27.9,24.8,29.68,WNW,298,0.0,0.0,88,0.00,,,0.00,Wunderground v.1.15,2013-03-25 11:55:00,
2013-03-25 08:00:00,27.9,24.8,29.68,SW,234,0.0,5.0,88,0.00,,,0.00,Wunderground v.1.15,2013-03-25 12:00:00,
2013-03-25 08:06:00,27.7,24.6,29.68,WSW,237,0.0,5.0,88,0.00,,,0.00,Wunderground v.1.15,2013-03-25 12:06:00,
2013-03-25 08:10:00,27.7,24.9,29.68,WSW,238,1.0,1.0,89,0.00,,,0.00,Wunderground v.1.15,2013-03-25 12:10:00,
2013-03-25 08:15:00,27.6,25.1,29.68,WSW,237,0.0,1.0,90,0.00,,,0.00,Wunderground v.1.15,2013-03-25 12:15:00,
2013-03-25 08:20:00,27.6,25.1,29.68,WSW,238,0.0,0.0,90,0.00,,,0.00,Wunderground v.1.15,2013-03-25 12:20:00,
2013-03-25 08:25:00,27.7,25.2,29.68,WSW,237,0.0,0.0,90,0.00,,,0.00,Wunderground v.1.15,2013-03-25 12:25:00,
2013-03-25 08:30:00,27.6,25.3,29.68,WSW,238,0.0,2.0,91,0.00,,,0.00,Wunderground v.1.15,2013-03-25 12:30:00,
2013-03-25 08:35:00,27.6,25.3,29.68,WSW,237,0.0,2.0,91,0.00,,,0.00,Wunderground v.1.15,2013-03-25 12:35:00,
2013-03-25 08:40:00,27.6,25.3,29.68,WSW,238,0.0,0.0,91,0.00,,,0.00,Wunderground v.1.15,2013-03-25 12:40:00,
2013-03-25 08:45:00,27.5,25.2,29.69,WSW,250,0.0,0.0,91,0.00,,,0.00,Wunderground v.1.15,2013-03-25 12:45:00,
2013-03-25 08:50:00,27.5,25.5,29.69,WSW,252,1.0,2.0,92,0.00,,,0.00,Wunderground v.1.15,2013-03-25 12:50:00,
2013-03-25 08:55:00,27.5,25.5,29.69,WNW,302,1.0,2.0,92,0.00,,,0.00,Wunderground v.1.15,2013-03-25 12:55:00,
2013-03-25 09:00:00,27.4,25.4,29.70,West,270,1.0,1.0,92,0.00,,,0.00,Wunderground v.1.15,2013-03-25 13:00:00,
2013-03-25 09:06:00,27.5,25.5,29.70,WNW,282,1.0,1.0,92,0.00,,,0.00,Wunderground v.1.15,2013-03-25 13:06:00,
2013-03-25 09:10:00,27.5,25.2,29.70,WNW,282,1.0,1.0,91,0.00,,,0.00,Wunderground v.1.15,2013-03-25 13:10:00,
2013-03-25 09:15:00,27.6,25.3,29.70,WNW,282,0.0,2.0,91,0.00,,,0.00,Wunderground v.1.15,2013-03-25 13:15:00,
2013-03-25 09:20:00,27.7,25.4,29.70,WSW,249,1.0,1.0,91,0.00,,,0.00,Wunderground v.1.15,2013-03-25 13:20:00,
2013-03-25 09:25:00,27.8,25.2,29.71,WNW,293,1.0,1.0,90,0.00,,,0.00,Wunderground v.1.15,2013-03-25 13:25:00,
2013-03-25 09:30:00,27.9,25.1,29.71,WNW,287,1.0,1.0,89,0.00,,,0.00,Wunderground v.1.15,2013-03-25 13:30:00,
2013-03-25 09:35:00,28.1,25.0,29.71,WNW,293,1.0,1.0,88,0.00,,,0.00,Wunderground v.1.15,2013-03-25 13:35:00,
2013-03-25 09:40:00,28.2,25.1,29.72,WNW,292,1.0,1.0,88,0.00,,,0.00,Wunderground v.1.15,2013-03-25 13:40:00,
2013-03-25 09:45:00,28.3,25.2,29.72,NW,315,0.0,2.0,88,0.00,,,0.00,Wunderground v.1.15,2013-03-25 13:45:00,
2013-03-25 09:50:00,28.4,24.7,29.72,NW,318,1.0,1.0,86,0.00,,,0.00,Wunderground v.1.15,2013-03-25 13:50:00,
2013-03-25 09:55:00,28.5,24.6,29.72,WNW,284,1.0,4.0,85,0.00,,,0.00,Wunderground v.1.15,2013-03-25 13:55:00,
2013-03-25 10:00:00,28.5,24.6,29.73,WNW,289,1.0,2.0,85,0.00,,,0.00,Wunderground v.1.15,2013-03-25 14:00:00,
2013-03-25 10:06:00,28.6,24.7,29.73,NW,318,2.0,2.0,85,0.00,,,0.00,Wunderground v.1.15,2013-03-25 14:06:00,
2013-03-25 10:10:00,28.5,24.6,29.73,WNW,294,2.0,2.0,85,0.00,,,0.00,Wunderground v.1.15,2013-03-25 14:10:00,
2013-03-25 10:15:00,28.4,24.5,29.73,WNW,300,2.0,2.0,85,0.00,,,0.00,Wunderground v.1.15,2013-03-25 14:15:00,
2013-03-25 10:20:00,28.4,24.5,29.74,WNW,292,2.0,2.0,85,0.00,,,0.00,Wunderground v.1.15,2013-03-25 14:20:00,
2013-03-25 10:25:00,28.5,24.8,29.74,NW,319,1.0,2.0,86,0.00,,,0.00,Wunderground v.1.15,2013-03-25 14:25:00,
2013-03-25 10:30:00,28.6,24.7,29.74,WNW,298,2.0,2.0,85,0.00,,,0.00,Wunderground v.1.15,2013-03-25 14:30:00,
2013-03-25 10:35:00,28.8,25.1,29.74,WNW,299,1.0,2.0,86,0.00,,,0.00,Wunderground v.1.15,2013-03-25 14:35:00,
2013-03-25 10:40:00,28.8,25.4,29.75,WNW,298,1.0,2.0,87,0.00,,,0.00,Wunderground v.1.15,2013-03-25 14:40:00,
2013-03-25 10:45:00,29.0,25.1,29.75,WNW,286,1.0,2.0,85,0.00,,,0.00,Wunderground v.1.15,2013-03-25 14:45:00,
2013-03-25 10:50:00,28.9,24.7,29.75,NW,306,1.0,1.0,84,0.00,,,0.00,Wunderground v.1.15,2013-03-25 14:50:00,
2013-03-25 10:55:00,28.9,25.0,29.75,NW,313,1.0,1.0,85,0.00,,,0.00,Wunderground v.1.15,2013-03-25 14:55:00,
2013-03-25 11:05:00,29.2,25.5,29.75,NW,313,1.0,3.0,86,0.00,,,0.00,Wunderground v.1.15,2013-03-25 15:05:00,
2013-03-25 11:10:00,29.2,24.7,29.76,West,275,1.0,2.0,83,0.00,,,0.00,Wunderground v.1.15,2013-03-25 15:10:00,
2013-03-25 11:15:00,29.3,25.1,29.76,West,267,1.0,2.0,84,0.00,,,0.00,Wunderground v.1.15,2013-03-25 15:15:00,
2013-03-25 11:20:00,29.6,25.6,29.76,NW,313,2.0,2.0,85,0.00,,,0.00,Wunderground v.1.15,2013-03-25 15:20:00,
2013-03-25 11:25:00,29.7,25.2,29.77,NW,313,1.0,2.0,83,0.00,,,0.00,Wunderground v.1.15,2013-03-25 15:25:00,
2013-03-25 11:30:00,29.7,25.5,29.77,NW,313,1.0,1.0,84,0.00,,,0.00,Wunderground v.1.15,2013-03-25 15:30:00,
2013-03-25 11:35:00,29.7,25.5,29.77,NW,313,1.0,1.0,84,0.00,,,0.00,Wunderground v.1.15,2013-03-25 15:35:00,
2013-03-25 11:40:00,29.6,25.4,29.78,NW,319,1.0,1.0,84,0.00,,,0.00,Wunderground v.1.15,2013-03-25 15:40:00,
2013-03-25 11:45:00,29.8,25.6,29.78,NNW,338,2.0,2.0,84,0.00,,,0.00,Wunderground v.1.15,2013-03-25 15:45:00,
2013-03-25 11:50:00,29.8,25.0,29.78,NW,315,1.0,1.0,82,0.00,,,0.00,Wunderground v.1.15,2013-03-25 15:50:00,
2013-03-25 11:55:00,29.8,25.3,29.78,NW,313,1.0,1.0,83,0.00,,,0.00,Wunderground v.1.15,2013-03-25 15:55:00,
2013-03-25 12:00:00,29.8,25.3,29.78,NW,314,1.0,2.0,83,0.00,,,0.00,Wunderground v.1.15,2013-03-25 16:00:00,
2013-03-25 12:05:00,30.0,25.8,29.79,North,355,2.0,2.0,84,0.00,,,0.00,Wunderground v.1.15,2013-03-25 16:05:00,
2013-03-25 12:10:00,30.2,25.9,29.79,North,355,1.0,1.0,84,0.00,,,0.00,Wunderground v.1.15,2013-03-25 16:10:00,
2013-03-25 12:15:00,30.3,25.8,29.79,NW,321,1.0,4.0,83,0.00,,,0.00,Wunderground v.1.15,2013-03-25 16:15:00,
2013-03-25 12:20:00,30.4,25.3,29.79,West,281,2.0,2.0,81,0.00,,,0.00,Wunderground v.1.15,2013-03-25 16:20:00,
2013-03-25 12:25:00,30.6,25.2,29.79,WNW,284,2.0,2.0,80,0.00,,,0.00,Wunderground v.1.15,2013-03-25 16:25:00,
2013-03-25 12:30:00,30.7,25.6,29.79,WNW,294,1.0,1.0,81,0.00,,,0.00,Wunderground v.1.15,2013-03-25 16:30:00,
2013-03-25 12:35:00,30.7,25.3,29.79,WNW,298,1.0,3.0,80,0.00,,,0.00,Wunderground v.1.15,2013-03-25 16:35:00,
2013-03-25 12:40:00,30.6,25.8,29.79,WNW,298,1.0,1.0,82,0.00,,,0.00,Wunderground v.1.15,2013-03-25 16:40:00,
2013-03-25 12:45:00,30.6,25.5,29.79,WNW,298,1.0,1.0,81,0.00,,,0.00,Wunderground v.1.15,2013-03-25 16:45:00,
2013-03-25 12:50:00,30.6,25.5,29.79,WNW,298,1.0,1.0,81,0.00,,,0.00,Wunderground v.1.15,2013-03-25 16:50:00,
2013-03-25 12:55:00,30.6,25.8,29.79,WNW,298,1.0,1.0,82,0.00,,,0.00,Wunderground v.1.15,2013-03-25 16:55:00,
2013-03-25 13:00:00,30.5,25.7,29.80,West,267,1.0,3.0,82,0.00,,,0.00,Wunderground v.1.15,2013-03-25 17:00:00,
2013-03-25 13:05:00,30.5,25.7,29.79,West,279,1.0,3.0,82,0.00,,,0.00,Wunderground v.1.15,2013-03-25 17:05:00,
2013-03-25 13:10:00,30.6,24.9,29.80,West,269,2.0,2.0,79,0.00,,,0.00,Wunderground v.1.15,2013-03-25 17:10:00,
2013-03-25 13:15:00,31.0,25.6,29.80,West,279,2.0,2.0,80,0.00,,,0.00,Wunderground v.1.15,2013-03-25 17:15:00,
2013-03-25 13:20:00,31.5,26.0,29.80,WNW,288,1.0,2.0,80,0.00,,,0.00,Wunderground v.1.15,2013-03-25 17:20:00,
2013-03-25 13:25:00,31.4,25.0,29.80,WNW,290,1.0,2.0,77,0.00,,,0.00,Wunderground v.1.15,2013-03-25 17:25:00,
2013-03-25 13:30:00,31.4,25.3,29.80,WNW,299,2.0,2.0,78,0.00,,,0.00,Wunderground v.1.15,2013-03-25 17:30:00,
2013-03-25 13:40:00,31.3,25.2,29.80,West,278,1.0,3.0,78,0.00,,,0.00,Wunderground v.1.15,2013-03-25 17:40:00,
2013-03-25 13:45:00,31.3,25.2,29.80,WNW,285,2.0,3.0,78,0.00,,,0.00,Wunderground v.1.15,2013-03-25 17:45:00,
2013-03-25 13:50:00,31.3,25.5,29.80,NW,308,2.0,2.0,79,0.00,,,0.00,Wunderground v.1.15,2013-03-25 17:50:00,
2013-03-25 13:55:00,31.5,25.4,29.80,NW,317,2.0,2.0,78,0.00,,,0.00,Wunderground v.1.15,2013-03-25 17:55:00,
2013-03-25 14:00:00,31.6,25.5,29.80,NNW,329,2.0,2.0,78,0.00,,,0.00,Wunderground v.1.15,2013-03-25 18:00:00,
2013-03-25 14:05:00,31.9,25.5,29.80,WNW,287,2.0,3.0,77,0.00,,,0.00,Wunderground v.1.15,2013-03-25 18:05:00,
2013-03-25 14:10:00,31.9,25.2,29.80,WNW,295,2.0,2.0,76,0.00,,,0.00,Wunderground v.1.15,2013-03-25 18:10:00,
2013-03-25 14:15:00,31.8,25.7,29.81,WNW,295,1.0,2.0,78,0.00,,,0.00,Wunderground v.1.15,2013-03-25 18:15:00,
2013-03-25 14:20:00,31.7,25.6,29.81,NW,319,1.0,1.0,78,0.00,,,0.00,Wunderground v.1.15,2013-03-25 18:20:00,
2013-03-25 14:25:00,31.7,25.6,29.80,NW,312,1.0,3.0,78,0.00,,,0.00,Wunderground v.1.15,2013-03-25 18:25:00,
2013-03-25 14:30:00,32.3,26.2,29.80,West,273,2.0,2.0,78,0.00,,,0.00,Wunderground v.1.15,2013-03-25 18:30:00,
2013-03-25 14:35:00,32.8,25.7,29.81,NW,304,2.0,5.0,75,0.00,,,0.00,Wunderground v.1.15,2013-03-25 18:35:00,
2013-03-25 14:40:00,32.9,26.2,29.80,NW,325,2.0,3.0,76,0.00,,,0.00,Wunderground v.1.15,2013-03-25 18:40:00,
2013-03-25 14:50:00,32.5,25.1,29.81,WNW,291,2.0,2.0,74,0.00,,,0.00,Wunderground v.1.15,2013-03-25 18:50:00,
2013-03-25 14:55:00,32.3,25.6,29.81,WNW,290,1.0,2.0,76,0.00,,,0.00,Wunderground v.1.15,2013-03-25 18:55:00,
2013-03-25 15:00:00,32.1,25.4,29.81,WNW,290,0.0,1.0,76,0.00,,,0.00,Wunderground v.1.15,2013-03-25 19:00:00,
2013-03-25 15:05:00,31.9,25.8,29.81,WNW,289,1.0,1.0,78,0.00,,,0.00,Wunderground v.1.15,2013-03-25 19:05:00,
2013-03-25 15:15:00,32.0,25.6,29.81,WNW,293,2.0,2.0,77,0.00,,,0.00,Wunderground v.1.15,2013-03-25 19:15:00,
2013-03-25 15:20:00,32.1,26.3,29.81,WNW,300,2.0,2.0,79,0.00,,,0.00,Wunderground v.1.15,2013-03-25 19:20:00,
2013-03-25 15:30:00,32.0,26.2,29.82,NW,325,2.0,2.0,79,0.00,,,0.00,Wunderground v.1.15,2013-03-25 19:30:00,
2013-03-25 15:35:00,32.5,26.1,29.82,WNW,290,2.0,2.0,77,0.00,,,0.00,Wunderground v.1.15,2013-03-25 19:35:00,
2013-03-25 15:40:00,32.8,26.4,29.82,WNW,291,2.0,2.0,77,0.00,,,0.00,Wunderground v.1.15,2013-03-25 19:40:00,
2013-03-25 15:45:00,32.8,26.7,29.81,WNW,291,1.0,3.0,78,0.00,,,0.00,Wunderground v.1.15,2013-03-25 19:45:00,
2013-03-25 15:50:00,32.7,26.0,29.82,WNW,291,2.0,2.0,76,0.00,,,0.00,Wunderground v.1.15,2013-03-25 19:50:00,
2013-03-25 15:55:00,32.6,26.5,29.82,WNW,289,1.0,2.0,78,0.00,,,0.00,Wunderground v.1.15,2013-03-25 19:55:00,
2013-03-25 16:00:00,32.4,26.3,29.82,NW,325,2.0,2.0,78,0.00,,,0.01,Wunderground v.1.15,2013-03-25 20:00:00,
2013-03-25 16:05:00,31.7,25.6,29.82,WNW,295,2.0,2.0,78,0.00,,,0.01,Wunderground v.1.15,2013-03-25 20:05:00,
2013-03-25 16:15:00,31.0,24.9,29.82,NW,313,2.0,3.0,78,0.00,,,0.01,Wunderground v.1.15,2013-03-25 20:15:00,
2013-03-25 16:20:00,30.9,24.8,29.83,NW,304,2.0,5.0,78,0.00,,,0.01,Wunderground v.1.15,2013-03-25 20:20:00,
2013-03-25 16:25:00,30.8,25.1,29.83,NW,325,2.0,5.0,79,0.00,,,0.01,Wunderground v.1.15,2013-03-25 20:25:00,
2013-03-25 16:30:00,30.9,25.2,29.83,WNW,294,2.0,2.0,79,0.00,,,0.01,Wunderground v.1.15,2013-03-25 20:30:00,
2013-03-25 16:35:00,30.9,25.2,29.83,WNW,294,2.0,2.0,79,0.00,,,0.01,Wunderground v.1.15,2013-03-25 20:35:00,
2013-03-25 16:40:00,30.9,24.8,29.83,WNW,297,1.0,1.0,78,0.00,,,0.01,Wunderground v.1.15,2013-03-25 20:40:00,
2013-03-25 16:45:00,30.8,24.7,29.84,NW,313,1.0,4.0,78,0.00,,,0.01,Wunderground v.1.15,2013-03-25 20:45:00,
2013-03-25 16:50:00,30.8,25.1,29.84,NW,309,2.0,2.0,79,0.00,,,0.01,Wunderground v.1.15,2013-03-25 20:50:00,
2013-03-25 16:55:00,30.8,24.7,29.84,NW,310,2.0,3.0,78,0.00,,,0.01,Wunderground v.1.15,2013-03-25 20:55:00,
2013-03-25 17:00:00,30.7,25.0,29.85,NW,310,1.0,1.0,79,0.00,,,0.01,Wunderground v.1.15,2013-03-25 21:00:00,
2013-03-25 17:05:00,30.5,24.5,29.85,NW,325,1.0,1.0,78,0.00,,,0.01,Wunderground v.1.15,2013-03-25 21:05:00,
2013-03-25 17:10:00,30.3,24.6,29.85,NW,322,2.0,4.0,79,0.00,,,0.01,Wunderground v.1.15,2013-03-25 21:10:00,
2013-03-25 17:15:00,30.3,24.3,29.85,NW,309,2.0,4.0,78,0.00,,,0.01,Wunderground v.1.15,2013-03-25 21:15:00,
2013-03-25 17:25:00,30.2,24.2,29.86,WNW,302,2.0,2.0,78,0.00,,,0.01,Wunderground v.1.15,2013-03-25 21:25:00,
2013-03-25 17:30:00,30.2,24.2,29.86,NW,309,2.0,2.0,78,0.00,,,0.01,Wunderground v.1.15,2013-03-25 21:30:00,
2013-03-25 17:35:00,30.2,23.9,29.86,NW,319,2.0,3.0,77,0.00,,,0.01,Wunderground v.1.15,2013-03-25 21:35:00,
2013-03-25 17:40:00,30.2,24.5,29.86,NW,320,2.0,2.0,79,0.00,,,0.01,Wunderground v.1.15,2013-03-25 21:40:00,
2013-03-25 17:50:00,30.2,24.2,29.87,NW,313,1.0,1.0,78,0.00,,,0.01,Wunderground v.1.15,2013-03-25 21:50:00,
2013-03-25 17:55:00,30.2,24.5,29.87,NW,313,1.0,1.0,79,0.00,,,0.01,Wunderground v.1.15,2013-03-25 21:55:00,
2013-03-25 18:00:00,30.1,24.1,29.87,WNW,292,1.0,2.0,78,0.00,,,0.01,Wunderground v.1.15,2013-03-25 22:00:00,
2013-03-25 18:05:00,30.1,24.1,29.87,NW,320,2.0,3.0,78,0.00,,,0.01,Wunderground v.1.15,2013-03-25 22:05:00,
2013-03-25 18:10:00,29.9,23.6,29.88,NW,315,2.0,2.0,77,0.00,,,0.01,Wunderground v.1.15,2013-03-25 22:10:00,
2013-03-25 18:15:00,29.9,23.6,29.88,WNW,302,2.0,2.0,77,0.00,,,0.01,Wunderground v.1.15,2013-03-25 22:15:00,
2013-03-25 18:20:00,30.0,24.0,29.88,NW,318,1.0,3.0,78,0.00,,,0.01,Wunderground v.1.15,2013-03-25 22:20:00,
2013-03-25 18:25:00,30.0,24.0,29.88,NW,310,2.0,3.0,78,0.00,,,0.01,Wunderground v.1.15,2013-03-25 22:25:00,
2013-03-25 18:30:00,29.9,23.6,29.89,WNW,299,2.0,2.0,77,0.00,,,0.01,Wunderground v.1.15,2013-03-25 22:30:00,
2013-03-25 18:35:00,29.9,23.9,29.89,West,264,2.0,2.0,78,0.00,,,0.01,Wunderground v.1.15,2013-03-25 22:35:00,
2013-03-25 18:40:00,29.8,23.8,29.89,West,277,2.0,2.0,78,0.00,,,0.01,Wunderground v.1.15,2013-03-25 22:40:00,
2013-03-25 18:45:00,29.7,23.7,29.90,WNW,288,2.0,2.0,78,0.00,,,0.01,Wunderground v.1.15,2013-03-25 22:45:00,
2013-03-25 18:50:00,29.7,24.3,29.90,WNW,289,1.0,2.0,80,0.00,,,0.01,Wunderground v.1.15,2013-03-25 22:50:00,
2013-03-25 18:55:00,29.6,24.8,29.90,NW,323,1.0,2.0,82,0.00,,,0.01,Wunderground v.1.15,2013-03-25 22:55:00,
2013-03-25 19:00:00,29.4,24.6,29.91,NW,323,1.0,1.0,82,0.00,,,0.01,Wunderground v.1.15,2013-03-25 23:00:00,
2013-03-25 19:05:00,29.2,25.0,29.91,NW,323,1.0,1.0,84,0.00,,,0.01,Wunderground v.1.15,2013-03-25 23:05:00,
2013-03-25 19:10:00,28.9,25.0,29.91,WNW,292,1.0,1.0,85,0.00,,,0.01,Wunderground v.1.15,2013-03-25 23:10:00,
2013-03-25 19:15:00,28.6,24.9,29.92,WNW,292,1.0,2.0,86,0.00,,,0.01,Wunderground v.1.15,2013-03-25 23:15:00,
2013-03-25 19:20:00,28.4,24.7,29.92,WNW,293,1.0,1.0,86,0.00,,,0.01,Wunderground v.1.15,2013-03-25 23:20:00,
2013-03-25 19:25:00,28.3,24.6,29.92,WNW,292,1.0,1.0,86,0.00,,,0.01,Wunderground v.1.15,2013-03-25 23:25:00,
2013-03-25 19:30:00,28.2,24.6,29.92,WNW,285,1.0,2.0,86,0.00,,,0.01,Wunderground v.1.15,2013-03-25 23:30:00,
2013-03-25 19:35:00,28.1,24.5,29.92,WNW,286,2.0,3.0,86,0.00,,,0.01,Wunderground v.1.15,2013-03-25 23:35:00,
2013-03-25 19:40:00,28.0,24.4,29.92,WNW,286,2.0,2.0,86,0.00,,,0.01,Wunderground v.1.15,2013-03-25 23:40:00,
2013-03-25 19:45:00,27.9,24.3,29.93,WNW,286,1.0,2.0,86,0.00,,,0.01,Wunderground v.1.15,2013-03-25 23:45:00,
2013-03-25 19:50:00,27.9,24.3,29.93,NW,309,1.0,1.0,86,0.00,,,0.01,Wunderground v.1.15,2013-03-25 23:50:00,
2013-03-25 19:55:00,27.9,24.0,29.93,NW,309,1.0,3.0,85,0.00,,,0.01,Wunderground v.1.15,2013-03-25 23:55:00,
2013-03-25 20:00:00,27.9,24.0,29.93,NW,310,1.0,1.0,85,0.00,,,0.01,Wunderground v.1.15,2013-03-26 00:00:00,
2013-03-25 20:05:00,27.9,24.0,29.93,NW,311,1.0,2.0,85,0.00,,,0.01,Wunderground v.1.15,2013-03-26 00:05:00,
2013-03-25 20:10:00,28.0,24.4,29.94,NW,311,1.0,1.0,86,0.00,,,0.01,Wunderground v.1.15,2013-03-26 00:10:00,
2013-03-25 20:20:00,28.0,24.1,29.94,NW,310,1.0,2.0,85,0.00,,,0.01,Wunderground v.1.15,2013-03-26 00:20:00,
2013-03-25 20:25:00,27.9,24.0,29.94,NW,309,1.0,2.0,85,0.00,,,0.01,Wunderground v.1.15,2013-03-26 00:25:00,
2013-03-25 20:30:00,27.9,24.0,29.94,NW,305,1.0,1.0,85,0.00,,,0.01,Wunderground v.1.15,2013-03-26 00:30:00,
2013-03-25 20:35:00,27.9,23.7,29.94,NW,304,1.0,2.0,84,0.00,,,0.01,Wunderground v.1.15,2013-03-26 00:35:00,
2013-03-25 20:40:00,27.9,23.7,29.95,NW,304,1.0,1.0,84,0.00,,,0.01,Wunderground v.1.15,2013-03-26 00:40:00,
2013-03-25 20:45:00,27.9,23.4,29.96,NW,304,1.0,1.0,83,0.00,,,0.01,Wunderground v.1.15,2013-03-26 00:45:00,
2013-03-25 20:50:00,27.9,23.1,29.95,NW,307,1.0,2.0,82,0.00,,,0.01,Wunderground v.1.15,2013-03-26 00:50:00,
2013-03-25 20:55:00,27.9,23.1,29.95,NW,324,1.0,2.0,82,0.00,,,0.01,Wunderground v.1.15,2013-03-26 00:55:00,
2013-03-25 21:00:00,28.0,23.2,29.96,NW,308,1.0,1.0,82,0.00,,,0.01,Wunderground v.1.15,2013-03-26 01:00:00,
2013-03-25 21:05:00,27.9,23.4,29.96,West,276,1.0,1.0,83,0.00,,,0.01,Wunderground v.1.15,2013-03-26 01:05:00,
2013-03-25 21:15:00,27.8,23.6,29.97,West,277,0.0,2.0,84,0.00,,,0.01,Wunderground v.1.15,2013-03-26 01:15:00,
2013-03-25 21:20:00,27.8,23.9,29.97,West,277,1.0,1.0,85,0.00,,,0.01,Wunderground v.1.15,2013-03-26 01:20:00,
2013-03-25 21:25:00,27.7,23.8,29.97,West,277,1.0,1.0,85,0.00,,,0.01,Wunderground v.1.15,2013-03-26 01:25:00,
2013-03-25 21:30:00,27.6,23.7,29.97,WSW,254,1.0,1.0,85,0.00,,,0.01,Wunderground v.1.15,2013-03-26 01:30:00,
2013-03-25 21:35:00,27.6,23.7,29.97,WSW,254,0.0,1.0,85,0.00,,,0.01,Wunderground v.1.15,2013-03-26 01:35:00,
2013-03-25 21:40:00,27.6,23.7,29.97,WSW,254,0.0,0.0,85,0.00,,,0.01,Wunderground v.1.15,2013-03-26 01:40:00,
2013-03-25 21:45:00,27.5,23.3,29.97,WSW,254,0.0,2.0,84,0.00,,,0.01,Wunderground v.1.15,2013-03-26 01:45:00,
2013-03-25 21:55:00,27.6,23.1,29.98,West,263,1.0,1.0,83,0.00,,,0.01,Wunderground v.1.15,2013-03-26 01:55:00,
2013-03-25 22:00:00,27.5,22.7,29.98,West,264,1.0,1.0,82,0.00,,,0.01,Wunderground v.1.15,2013-03-26 02:00:00,
2013-03-25 22:05:00,27.5,22.7,29.97,West,266,1.0,1.0,82,0.00,,,0.01,Wunderground v.1.15,2013-03-26 02:05:00,
2013-03-25 22:10:00,27.5,22.7,29.98,West,267,1.0,1.0,82,0.00,,,0.01,Wunderground v.1.15,2013-03-26 02:10:00,
2013-03-25 22:15:00,27.5,22.4,29.98,WNW,302,1.0,1.0,81,0.00,,,0.01,Wunderground v.1.15,2013-03-26 02:15:00,
2013-03-25 22:20:00,27.5,22.4,29.97,NNW,327,2.0,2.0,81,0.00,,,0.01,Wunderground v.1.15,2013-03-26 02:20:00,
2013-03-25 22:25:00,27.5,22.4,29.97,NW,310,1.0,2.0,81,0.00,,,0.01,Wunderground v.1.15,2013-03-26 02:25:00,
2013-03-25 22:30:00,27.5,22.4,29.98,NW,310,1.0,1.0,81,0.00,,,0.01,Wunderground v.1.15,2013-03-26 02:30:00,
2013-03-25 22:35:00,27.5,22.4,29.98,NNW,327,1.0,3.0,81,0.00,,,0.01,Wunderground v.1.15,2013-03-26 02:35:00,
2013-03-25 22:40:00,27.5,22.1,29.98,WNW,297,2.0,2.0,80,0.00,,,0.01,Wunderground v.1.15,2013-03-26 02:40:00,
2013-03-25 22:45:00,27.5,22.4,29.98,WNW,285,2.0,2.0,81,0.00,,,0.01,Wunderground v.1.15,2013-03-26 02:45:00,
2013-03-25 22:50:00,27.5,22.4,29.98,NW,320,2.0,5.0,81,0.00,,,0.01,Wunderground v.1.15,2013-03-26 02:50:00,
2013-03-25 22:55:00,27.6,22.8,29.98,NNW,338,2.0,5.0,82,0.00,,,0.01,Wunderground v.1.15,2013-03-26 02:55:00,
2013-03-25 23:00:00,27.5,22.4,29.98,NW,324,2.0,2.0,81,0.00,,,0.01,Wunderground v.1.15,2013-03-26 03:00:00,
2013-03-25 23:05:00,27.5,22.7,29.98,NW,313,2.0,2.0,82,0.00,,,0.01,Wunderground v.1.15,2013-03-26 03:05:00,
2013-03-25 23:10:00,27.5,22.7,29.98,NW,313,2.0,4.0,82,0.00,,,0.01,Wunderground v.1.15,2013-03-26 03:10:00,
2013-03-25 23:15:00,27.5,22.7,29.99,NW,313,1.0,4.0,82,0.00,,,0.01,Wunderground v.1.15,2013-03-26 03:15:00,
2013-03-25 23:20:00,27.5,22.4,30.00,NW,306,1.0,5.0,81,0.00,,,0.01,Wunderground v.1.15,2013-03-26 03:20:00,
2013-03-25 23:25:00,27.4,22.3,29.99,NW,309,1.0,5.0,81,0.00,,,0.01,Wunderground v.1.15,2013-03-26 03:25:00,
2013-03-25 23:30:00,27.4,22.3,29.99,NW,309,0.0,1.0,81,0.00,,,0.01,Wunderground v.1.15,2013-03-26 03:30:00,
2013-03-25 23:35:00,27.3,22.2,29.99,NW,309,0.0,1.0,81,0.00,,,0.01,Wunderground v.1.15,2013-03-26 03:35:00,
2013-03-25 23:40:00,27.4,22.6,29.99,NW,311,1.0,1.0,82,0.00,,,0.01,Wunderground v.1.15,2013-03-26 03:40:00,
2013-03-25 23:45:00,27.4,22.3,29.99,NW,311,1.0,1.0,81,0.00,,,0.01,Wunderground v.1.15,2013-03-26 03:45:00,
2013-03-25 23:50:00,27.4,22.3,30.00,NW,311,1.0,1.0,81,0.00,,,0.01,Wunderground v.1.15,2013-03-26 03:50:00,
2013-03-25 23:55:00,27.5,22.4,30.00,NNW,329,1.0,2.0,81,0.00,,,0.01,Wunderground v.1.15,2013-03-26 03:55:00,